This is the latest recevied weather packets stored in our database for station/object KB2AHZ. If no packets are shown the sender has not sent any weather packets the latest 10 day(s).
| Time | Temp. | Humidity | Pressure | Rain* | Wind** | Luminosity | Snow |
|---|---|---|---|---|---|---|---|
| 1777745940 | 14.44° C | 67% | 1013.4 hPa | 0 mm | - | 392 W/m² | - |
| 1777745634 | 14.44° C | 65% | 1013.3 hPa | 0 mm | - | 408 W/m² | - |
| 1777745332 | 14.44° C | 65% | 1013.1 hPa | 0 mm | - | 401 W/m² | - |
| 1777745028 | 14.44° C | 66% | 1013.2 hPa | 0 mm | - | 442 W/m² | - |
| 1777744724 | 14.44° C | 68% | 1013.4 hPa | 0 mm | - | 410 W/m² | - |
| 1777744418 | 13.89° C | 67% | 1013.5 hPa | 0 mm | - | 403 W/m² | - |
| 1777744116 | 14.44° C | 67% | 1013.2 hPa | 0 mm | - | 417 W/m² | - |
| 1777743813 | 13.89° C | 67% | 1013.3 hPa | 0 mm | - | 438 W/m² | - |
| 1777743509 | 13.89° C | 68% | 1013.5 hPa | 0 mm | - | 355 W/m² | - |
| 1777743206 | 13.89° C | 67% | 1013.5 hPa | 0 mm | - | 354 W/m² | - |
| 1777742905 | 13.89° C | 69% | 1013.6 hPa | 0 mm | - | 410 W/m² | - |
| 1777742601 | 13.89° C | 69% | 1014 hPa | 0 mm | - | 328 W/m² | - |
| 1777742297 | 13.89° C | 69% | 1013.7 hPa | 0 mm | - | 373 W/m² | - |
| 1777741994 | 13.89° C | 70% | 1013.8 hPa | 0 mm | - | 313 W/m² | - |
| 1777741691 | 13.89° C | 69% | 1013.9 hPa | 0 mm | - | 357 W/m² | - |
| 1777741387 | 13.89° C | 69% | 1013.8 hPa | 0 mm | - | 417 W/m² | - |
| 1777741083 | 13.89° C | 71% | 1014.2 hPa | 0 mm | - | 352 W/m² | - |
| 1777740781 | 13.89° C | 73% | 1014 hPa | 0 mm | - | 462 W/m² | - |
| 1777740477 | 13.33° C | 72% | 1015.1 hPa | 0 mm | - | 393 W/m² | - |
| 1777740175 | 12.78° C | 73% | 1014.7 hPa | 0 mm | - | 286 W/m² | - |
| 1777739870 | 12.78° C | 74% | 1015.2 hPa | 0 mm | - | 147 W/m² | - |
| 1777739567 | 12.78° C | 73% | 1015.2 hPa | 0 mm | - | 174 W/m² | - |
| 1777739264 | 13.33° C | 71% | 1015.1 hPa | 0 mm | - | 202 W/m² | - |
| 1777738961 | 13.33° C | 73% | 1015 hPa | 0 mm | - | 205 W/m² | - |
| 1777738658 | 13.33° C | 74% | 1015.1 hPa | 0 mm | - | 177 W/m² | - |
* Rain latest hour (hover to see other rain measurements)
** Current wind speed in m/s (hover to see current wind gust speed)